Year,Month,Day,Hour,Minute,Value (Times are PST for temperature in C)
2017,07,15,00,00,18.70
2017,07,15,00,01,18.70
2017,07,15,00,02,18.70
2017,07,15,00,03,18.70
2017,07,15,00,04,18.80
2017,07,15,00,05,18.80
2017,07,15,00,06,18.80
2017,07,15,00,07,18.80
2017,07,15,00,08,18.80
2017,07,15,00,09,18.80
2017,07,15,00,10,18.90
2017,07,15,00,11,18.90
2017,07,15,00,12,18.80
2017,07,15,00,13,18.80
2017,07,15,00,14,18.80
2017,07,15,00,15,18.70
2017,07,15,00,16,18.70
2017,07,15,00,17,18.70
2017,07,15,00,18,18.70
2017,07,15,00,19,18.80
2017,07,15,00,20,18.70
2017,07,15,00,21,18.70
2017,07,15,00,22,18.60
2017,07,15,00,23,18.60
2017,07,15,00,24,18.60
2017,07,15,00,25,18.60
2017,07,15,00,26,18.60
2017,07,15,00,27,18.60
2017,07,15,00,28,18.60
2017,07,15,00,29,18.70
2017,07,15,00,30,18.70
2017,07,15,00,31,18.60
2017,07,15,00,32,18.60
2017,07,15,00,33,18.70
2017,07,15,00,34,18.70
2017,07,15,00,35,18.70
2017,07,15,00,36,18.70
2017,07,15,00,37,18.60
2017,07,15,00,38,18.60
2017,07,15,00,39,18.60
2017,07,15,00,40,18.60
2017,07,15,00,41,18.60
2017,07,15,00,42,18.50
2017,07,15,00,43,18.50
2017,07,15,00,44,18.50
2017,07,15,00,45,18.40
2017,07,15,00,46,18.40
2017,07,15,00,47,18.40
2017,07,15,00,48,18.30
2017,07,15,00,49,18.30
2017,07,15,00,50,18.30
2017,07,15,00,51,18.30
2017,07,15,00,52,18.20
2017,07,15,00,53,18.20
2017,07,15,00,54,18.20
2017,07,15,00,55,18.10
2017,07,15,00,56,18.10
2017,07,15,00,57,18.00
2017,07,15,00,58,17.90
2017,07,15,00,59,17.90
2017,07,15,01,00,17.80
2017,07,15,01,01,17.80
2017,07,15,01,02,17.80
2017,07,15,01,03,17.70
2017,07,15,01,04,17.70
2017,07,15,01,05,17.60
2017,07,15,01,06,17.60
2017,07,15,01,07,17.60
2017,07,15,01,08,17.50
2017,07,15,01,09,17.50
2017,07,15,01,10,17.40
2017,07,15,01,11,17.40
2017,07,15,01,12,17.40
2017,07,15,01,13,17.30
2017,07,15,01,14,17.30
2017,07,15,01,15,17.30
2017,07,15,01,16,17.30
2017,07,15,01,17,17.30
2017,07,15,01,18,17.30
2017,07,15,01,19,17.40
2017,07,15,01,20,17.50
2017,07,15,01,21,17.60
2017,07,15,01,22,17.70
2017,07,15,01,23,17.70
2017,07,15,01,24,17.80
2017,07,15,01,25,17.80
2017,07,15,01,26,17.80
2017,07,15,01,27,17.80
2017,07,15,01,28,17.80
2017,07,15,01,29,17.70
2017,07,15,01,30,17.70
2017,07,15,01,31,17.70
2017,07,15,01,32,17.60
2017,07,15,01,33,17.60
2017,07,15,01,34,17.50
2017,07,15,01,35,17.50
2017,07,15,01,36,17.50
2017,07,15,01,37,17.40
2017,07,15,01,38,17.40
2017,07,15,01,39,17.40
2017,07,15,01,40,17.30
2017,07,15,01,41,17.30
2017,07,15,01,42,17.30
2017,07,15,01,43,17.30
2017,07,15,01,44,17.20
2017,07,15,01,45,17.20
2017,07,15,01,46,17.20
2017,07,15,01,47,17.10
2017,07,15,01,48,17.10
2017,07,15,01,49,17.10
2017,07,15,01,50,17.00
2017,07,15,01,51,17.00
2017,07,15,01,52,16.90
2017,07,15,01,53,16.90
2017,07,15,01,54,16.90
2017,07,15,01,55,16.90
2017,07,15,01,56,16.90
2017,07,15,01,57,16.90
2017,07,15,01,58,16.90
2017,07,15,01,59,16.80
2017,07,15,02,00,16.80
2017,07,15,02,01,16.80
2017,07,15,02,02,16.80
2017,07,15,02,03,16.70
2017,07,15,02,04,16.70
2017,07,15,02,05,16.70
2017,07,15,02,06,16.60
2017,07,15,02,07,16.60
2017,07,15,02,08,16.50
2017,07,15,02,09,16.50
2017,07,15,02,10,16.40
2017,07,15,02,11,16.40
2017,07,15,02,12,16.30
2017,07,15,02,13,16.30
2017,07,15,02,14,16.20
2017,07,15,02,15,16.20
2017,07,15,02,16,16.20
2017,07,15,02,17,16.10
2017,07,15,02,18,16.10
2017,07,15,02,19,16.00
2017,07,15,02,20,16.00
2017,07,15,02,21,15.90
2017,07,15,02,22,15.90
2017,07,15,02,23,15.80
2017,07,15,02,24,15.80
2017,07,15,02,25,15.70
2017,07,15,02,26,15.70
2017,07,15,02,27,15.70
2017,07,15,02,28,15.70
2017,07,15,02,29,15.70
2017,07,15,02,30,15.60
2017,07,15,02,31,15.60
2017,07,15,02,32,15.60
2017,07,15,02,33,15.60
2017,07,15,02,34,15.60
2017,07,15,02,35,15.60
2017,07,15,02,36,15.60
2017,07,15,02,37,15.60
2017,07,15,02,38,15.60
2017,07,15,02,39,15.60
2017,07,15,02,40,15.50
2017,07,15,02,41,15.50
2017,07,15,02,42,15.40
2017,07,15,02,43,15.40
2017,07,15,02,44,15.40
2017,07,15,02,45,15.40
2017,07,15,02,46,15.40
2017,07,15,02,47,15.40
2017,07,15,02,48,15.40
2017,07,15,02,49,15.30
2017,07,15,02,50,15.30
2017,07,15,02,51,15.30
2017,07,15,02,52,15.30
2017,07,15,02,53,15.30
2017,07,15,02,54,15.30
2017,07,15,02,55,15.30
2017,07,15,02,56,15.20
2017,07,15,02,57,15.20
2017,07,15,02,58,15.20
2017,07,15,02,59,15.10
2017,07,15,03,00,15.10
2017,07,15,03,01,15.00
2017,07,15,03,02,15.00
2017,07,15,03,03,15.00
2017,07,15,03,04,14.90
2017,07,15,03,05,14.90
2017,07,15,03,06,14.80
2017,07,15,03,07,14.80
2017,07,15,03,08,14.70
2017,07,15,03,09,14.70
2017,07,15,03,10,14.70
2017,07,15,03,11,14.70
2017,07,15,03,12,14.70
2017,07,15,03,13,14.60
2017,07,15,03,14,14.60
2017,07,15,03,15,14.60
2017,07,15,03,16,14.50
2017,07,15,03,17,14.50
2017,07,15,03,18,14.50
2017,07,15,03,19,14.50
2017,07,15,03,20,14.40
2017,07,15,03,21,14.40
2017,07,15,03,22,14.40
2017,07,15,03,23,14.40
2017,07,15,03,24,14.40
2017,07,15,03,25,14.40
2017,07,15,03,26,14.40
2017,07,15,03,27,14.30
2017,07,15,03,28,14.30
2017,07,15,03,29,14.30
2017,07,15,03,30,14.30
2017,07,15,03,31,14.30
2017,07,15,03,32,14.30
2017,07,15,03,33,14.30
2017,07,15,03,34,14.30
2017,07,15,03,35,14.30
2017,07,15,03,36,14.30
2017,07,15,03,37,14.20
2017,07,15,03,38,14.20
2017,07,15,03,39,14.20
2017,07,15,03,40,14.20
2017,07,15,03,41,14.20
2017,07,15,03,42,14.20
2017,07,15,03,43,14.20
2017,07,15,03,44,14.20
2017,07,15,03,45,14.20
2017,07,15,03,46,14.10
2017,07,15,03,47,14.10
2017,07,15,03,48,14.00
2017,07,15,03,49,14.00
2017,07,15,03,50,13.90
2017,07,15,03,51,13.90
2017,07,15,03,52,13.80
2017,07,15,03,53,13.80
2017,07,15,03,54,13.80
2017,07,15,03,55,13.80
2017,07,15,03,56,13.70
2017,07,15,03,57,13.70
2017,07,15,03,58,13.60
2017,07,15,03,59,13.60
2017,07,15,04,00,13.60
2017,07,15,04,01,13.50
2017,07,15,04,02,13.50
2017,07,15,04,03,13.40
2017,07,15,04,04,13.40
2017,07,15,04,05,13.40
2017,07,15,04,06,13.30
2017,07,15,04,07,13.30
2017,07,15,04,08,13.30
2017,07,15,04,09,13.20
2017,07,15,04,10,13.20
2017,07,15,04,11,13.20
2017,07,15,04,12,13.20
2017,07,15,04,13,13.10
2017,07,15,04,14,13.10
2017,07,15,04,15,13.00
2017,07,15,04,16,13.00
2017,07,15,04,17,12.90
2017,07,15,04,18,12.90
2017,07,15,04,19,12.90
2017,07,15,04,20,12.80
2017,07,15,04,21,12.80
2017,07,15,04,22,12.80
2017,07,15,04,23,12.80
2017,07,15,04,24,12.80
2017,07,15,04,25,12.80
2017,07,15,04,26,12.70
2017,07,15,04,27,12.70
2017,07,15,04,28,12.70
2017,07,15,04,29,12.70
2017,07,15,04,30,12.70
2017,07,15,04,31,12.70
2017,07,15,04,32,12.70
2017,07,15,04,33,12.70
2017,07,15,04,34,12.60
2017,07,15,04,35,12.60
2017,07,15,04,36,12.60
2017,07,15,04,37,12.60
2017,07,15,04,38,12.50
2017,07,15,04,39,12.50
2017,07,15,04,40,12.40
2017,07,15,04,41,12.40
2017,07,15,04,42,12.40
2017,07,15,04,43,12.40
2017,07,15,04,44,12.40
2017,07,15,04,45,12.30
2017,07,15,04,46,12.30
2017,07,15,04,47,12.30
2017,07,15,04,48,12.30
2017,07,15,04,49,12.30
2017,07,15,04,50,12.20
2017,07,15,04,51,12.20
2017,07,15,04,52,12.20
2017,07,15,04,53,12.20
2017,07,15,04,54,12.20
2017,07,15,04,55,12.20
2017,07,15,04,56,12.20
2017,07,15,04,57,12.20
2017,07,15,04,58,12.20
2017,07,15,04,59,12.20
2017,07,15,05,00,12.20
2017,07,15,05,01,12.20
2017,07,15,05,02,12.20
2017,07,15,05,03,12.20
2017,07,15,05,04,12.10
2017,07,15,05,05,12.10
2017,07,15,05,06,12.10
2017,07,15,05,07,12.10
2017,07,15,05,08,12.10
2017,07,15,05,09,12.20
2017,07,15,05,10,12.20
2017,07,15,05,11,12.20
2017,07,15,05,12,12.20
2017,07,15,05,13,12.10
2017,07,15,05,14,12.10
2017,07,15,05,15,12.10
2017,07,15,05,16,12.10
2017,07,15,05,17,12.10
2017,07,15,05,18,12.10
2017,07,15,05,19,12.00
2017,07,15,05,20,12.00
2017,07,15,05,21,12.00
2017,07,15,05,22,12.00
2017,07,15,05,23,12.00
2017,07,15,05,24,12.00
2017,07,15,05,25,12.00
2017,07,15,05,26,12.00
2017,07,15,05,27,12.00
2017,07,15,05,28,11.90
2017,07,15,05,29,11.90
2017,07,15,05,30,11.90
2017,07,15,05,31,11.90
2017,07,15,05,32,11.90
2017,07,15,05,33,11.80
2017,07,15,05,34,11.80
2017,07,15,05,35,11.80
2017,07,15,05,36,11.80
2017,07,15,05,37,11.80
2017,07,15,05,38,11.70
2017,07,15,05,39,11.70
2017,07,15,05,40,11.70
2017,07,15,05,41,11.70
2017,07,15,05,42,11.70
2017,07,15,05,43,11.60
2017,07,15,05,44,11.60
2017,07,15,05,45,11.60
2017,07,15,05,46,11.60
2017,07,15,05,47,11.60
2017,07,15,05,48,11.60
2017,07,15,05,49,11.60
2017,07,15,05,50,11.60
2017,07,15,05,51,11.60
2017,07,15,05,52,11.60
2017,07,15,05,53,11.60
2017,07,15,05,54,11.60
2017,07,15,05,55,11.60
2017,07,15,05,56,11.60
2017,07,15,05,57,11.70
2017,07,15,05,58,11.70
2017,07,15,05,59,11.70
2017,07,15,06,00,11.80
2017,07,15,06,01,11.80
2017,07,15,06,02,11.80
2017,07,15,06,03,11.80
2017,07,15,06,04,11.80
2017,07,15,06,05,11.80
2017,07,15,06,06,11.80
2017,07,15,06,07,11.80
2017,07,15,06,08,11.80
2017,07,15,06,09,11.80
2017,07,15,06,10,11.80
2017,07,15,06,11,11.80
2017,07,15,06,12,11.80
2017,07,15,06,13,11.90
2017,07,15,06,14,11.90
2017,07,15,06,15,11.90
2017,07,15,06,16,11.90
2017,07,15,06,17,12.00
2017,07,15,06,18,12.00
2017,07,15,06,19,12.10
2017,07,15,06,20,12.10
2017,07,15,06,21,12.10
2017,07,15,06,22,12.20
2017,07,15,06,23,12.20
2017,07,15,06,24,12.20
2017,07,15,06,25,12.20
2017,07,15,06,26,12.20
2017,07,15,06,27,12.20
2017,07,15,06,28,12.30
2017,07,15,06,29,12.30
2017,07,15,06,30,12.40
2017,07,15,06,31,12.50
2017,07,15,06,32,12.70
2017,07,15,06,33,12.80
2017,07,15,06,34,13.00
2017,07,15,06,35,13.10
2017,07,15,06,36,13.20
2017,07,15,06,37,13.20
2017,07,15,06,38,13.10
2017,07,15,06,39,13.00
2017,07,15,06,40,12.80
2017,07,15,06,41,12.70
2017,07,15,06,42,12.70
2017,07,15,06,43,12.60
2017,07,15,06,44,12.50
2017,07,15,06,45,12.40
2017,07,15,06,46,12.40
2017,07,15,06,47,12.30
2017,07,15,06,48,12.30
2017,07,15,06,49,12.30
2017,07,15,06,50,12.30
2017,07,15,06,51,12.30
2017,07,15,06,52,12.30
2017,07,15,06,53,12.30
2017,07,15,06,54,12.40
2017,07,15,06,55,12.40
2017,07,15,06,56,12.50
2017,07,15,06,57,12.60
2017,07,15,06,58,12.70
2017,07,15,06,59,12.70
2017,07,15,07,00,12.80
2017,07,15,07,01,12.80
2017,07,15,07,02,12.90
2017,07,15,07,03,13.00
2017,07,15,07,04,13.10
2017,07,15,07,05,13.20
2017,07,15,07,06,13.30
2017,07,15,07,07,13.40
2017,07,15,07,08,13.50
2017,07,15,07,09,13.60
2017,07,15,07,10,13.60
2017,07,15,07,11,13.70
2017,07,15,07,12,13.70
2017,07,15,07,13,13.80
2017,07,15,07,14,13.90
2017,07,15,07,15,14.00
2017,07,15,07,16,14.10
2017,07,15,07,17,14.20
2017,07,15,07,18,14.30
2017,07,15,07,19,14.50
2017,07,15,07,20,14.80
2017,07,15,07,21,15.00
2017,07,15,07,22,15.20
2017,07,15,07,23,15.40
2017,07,15,07,24,15.50
2017,07,15,07,25,15.60
2017,07,15,07,26,15.70
2017,07,15,07,27,15.80
2017,07,15,07,28,16.00
2017,07,15,07,29,16.10
2017,07,15,07,30,16.10
2017,07,15,07,31,16.10
2017,07,15,07,32,16.10
2017,07,15,07,33,16.10
2017,07,15,07,34,16.10
2017,07,15,07,35,16.10
2017,07,15,07,36,16.10
2017,07,15,07,37,16.10
2017,07,15,07,38,16.10
2017,07,15,07,39,16.10
2017,07,15,07,40,16.10
2017,07,15,07,41,16.20
2017,07,15,07,42,16.40
2017,07,15,07,43,16.50
2017,07,15,07,44,16.60
2017,07,15,07,45,16.60
2017,07,15,07,46,16.60
2017,07,15,07,47,16.70
2017,07,15,07,48,16.80
2017,07,15,07,49,16.90
2017,07,15,07,50,17.00
2017,07,15,07,51,17.10
2017,07,15,07,52,17.10
2017,07,15,07,53,17.10
2017,07,15,07,54,17.20
2017,07,15,07,55,17.20
2017,07,15,07,56,17.20
2017,07,15,07,57,17.20
2017,07,15,07,58,17.20
2017,07,15,07,59,17.20
2017,07,15,08,00,17.20
2017,07,15,08,01,17.20
2017,07,15,08,02,17.20
2017,07,15,08,03,17.20
2017,07,15,08,04,17.20
2017,07,15,08,05,17.20
2017,07,15,08,06,17.20
2017,07,15,08,07,17.20
2017,07,15,08,08,17.30
2017,07,15,08,09,17.30
2017,07,15,08,10,17.30
2017,07,15,08,11,17.30
2017,07,15,08,12,17.40
2017,07,15,08,13,17.50
2017,07,15,08,14,17.60
2017,07,15,08,15,17.60
2017,07,15,08,16,17.70
2017,07,15,08,17,17.80
2017,07,15,08,18,18.00
2017,07,15,08,19,18.10
2017,07,15,08,20,18.20
2017,07,15,08,21,18.40
2017,07,15,08,22,18.50
2017,07,15,08,23,18.60
2017,07,15,08,24,18.70
2017,07,15,08,25,18.80
2017,07,15,08,26,18.80
2017,07,15,08,27,18.80
2017,07,15,08,28,18.80
2017,07,15,08,29,18.90
2017,07,15,08,30,18.90
2017,07,15,08,31,19.00
2017,07,15,08,32,19.00
2017,07,15,08,33,19.10
2017,07,15,08,34,19.20
2017,07,15,08,35,19.20
2017,07,15,08,36,19.30
2017,07,15,08,37,19.30
2017,07,15,08,38,19.20
2017,07,15,08,39,19.20
2017,07,15,08,40,19.20
2017,07,15,08,41,19.20
2017,07,15,08,42,19.30
2017,07,15,08,43,19.30
2017,07,15,08,44,19.30
2017,07,15,08,45,19.30
2017,07,15,08,46,19.30
2017,07,15,08,47,19.40
2017,07,15,08,48,19.40
2017,07,15,08,49,19.40
2017,07,15,08,50,19.40
2017,07,15,08,51,19.40
2017,07,15,08,52,19.40
2017,07,15,08,53,19.40
2017,07,15,08,54,19.30
2017,07,15,08,55,19.30
2017,07,15,08,56,19.40
2017,07,15,08,57,19.40
2017,07,15,08,58,19.40
2017,07,15,08,59,19.50
2017,07,15,09,00,19.50
2017,07,15,09,01,19.60
2017,07,15,09,02,19.60
2017,07,15,09,03,19.60
2017,07,15,09,04,19.60
2017,07,15,09,05,19.60
2017,07,15,09,06,19.70
2017,07,15,09,07,19.80
2017,07,15,09,08,19.80
2017,07,15,09,09,19.80
2017,07,15,09,10,19.80
2017,07,15,09,11,19.80
2017,07,15,09,12,19.90
2017,07,15,09,13,19.90
2017,07,15,09,14,19.90
2017,07,15,09,15,19.90
2017,07,15,09,16,19.80
2017,07,15,09,17,19.80
2017,07,15,09,18,19.90
2017,07,15,09,19,19.90
2017,07,15,09,20,20.00
2017,07,15,09,21,20.00
2017,07,15,09,22,20.00
2017,07,15,09,23,19.90
2017,07,15,09,24,19.90
2017,07,15,09,25,19.90
2017,07,15,09,26,19.90
2017,07,15,09,27,19.90
2017,07,15,09,28,19.80
2017,07,15,09,29,19.80
2017,07,15,09,30,19.70
2017,07,15,09,31,19.70
2017,07,15,09,32,19.80
2017,07,15,09,33,19.80
2017,07,15,09,34,20.00
2017,07,15,09,35,20.00
2017,07,15,09,36,20.10
2017,07,15,09,37,20.10
2017,07,15,09,38,20.00
2017,07,15,09,39,20.00
2017,07,15,09,40,20.10
2017,07,15,09,41,20.20
2017,07,15,09,42,20.20
2017,07,15,09,43,20.20
2017,07,15,09,44,20.20
2017,07,15,09,45,20.20
2017,07,15,09,46,20.30
2017,07,15,09,47,20.30
2017,07,15,09,48,20.30
2017,07,15,09,49,20.30
2017,07,15,09,50,20.30
2017,07,15,09,51,20.40
2017,07,15,09,52,20.50
2017,07,15,09,53,20.40
2017,07,15,09,54,20.30
2017,07,15,09,55,20.20
2017,07,15,09,56,20.20
2017,07,15,09,57,20.20
2017,07,15,09,58,20.20
2017,07,15,09,59,20.10
2017,07,15,10,00,20.00
2017,07,15,10,01,20.00
2017,07,15,10,02,20.00
2017,07,15,10,03,20.00
2017,07,15,10,04,20.00
2017,07,15,10,05,20.00
2017,07,15,10,06,20.10
2017,07,15,10,07,20.10
2017,07,15,10,08,20.00
2017,07,15,10,09,20.00
2017,07,15,10,10,20.10
2017,07,15,10,11,20.20
2017,07,15,10,12,20.20
2017,07,15,10,13,20.20
2017,07,15,10,14,20.20
2017,07,15,10,15,20.20
2017,07,15,10,16,20.20
2017,07,15,10,17,20.20
2017,07,15,10,18,20.00
2017,07,15,10,19,19.90
2017,07,15,10,20,19.80
2017,07,15,10,21,19.70
2017,07,15,10,22,19.50
2017,07,15,10,23,19.40
2017,07,15,10,24,19.30
2017,07,15,10,25,19.20
2017,07,15,10,26,19.30
2017,07,15,10,27,19.20
2017,07,15,10,28,19.30
2017,07,15,10,29,19.20
2017,07,15,10,30,19.20
2017,07,15,10,31,19.30
2017,07,15,10,32,19.50
2017,07,15,10,33,19.60
2017,07,15,10,34,19.70
2017,07,15,10,35,19.80
2017,07,15,10,36,19.80
2017,07,15,10,37,19.70
2017,07,15,10,38,19.70
2017,07,15,10,39,19.70
2017,07,15,10,40,19.70
2017,07,15,10,41,19.80
2017,07,15,10,42,19.90
2017,07,15,10,43,20.10
2017,07,15,10,44,20.30
2017,07,15,10,45,20.30
2017,07,15,10,46,20.30
2017,07,15,10,47,20.30
2017,07,15,10,48,20.30
2017,07,15,10,49,20.40
2017,07,15,10,50,20.50
2017,07,15,10,51,20.60
2017,07,15,10,52,20.70
2017,07,15,10,53,20.60
2017,07,15,10,54,20.50
2017,07,15,10,55,20.40
2017,07,15,10,56,20.30
2017,07,15,10,57,20.30
2017,07,15,10,58,20.40
2017,07,15,10,59,20.50
2017,07,15,11,00,20.60
2017,07,15,11,01,20.70
2017,07,15,11,02,20.90
2017,07,15,11,03,20.80
2017,07,15,11,04,20.70
2017,07,15,11,05,20.70
2017,07,15,11,06,20.80
2017,07,15,11,07,20.80
2017,07,15,11,08,20.90
2017,07,15,11,09,20.90
2017,07,15,11,10,20.90
2017,07,15,11,11,20.70
2017,07,15,11,12,20.60
2017,07,15,11,13,20.50
2017,07,15,11,14,20.30
2017,07,15,11,15,20.20
2017,07,15,11,16,20.10
2017,07,15,11,17,20.20
2017,07,15,11,18,20.20
2017,07,15,11,19,20.20
2017,07,15,11,20,20.20
2017,07,15,11,21,20.30
2017,07,15,11,22,20.40
2017,07,15,11,23,20.40
2017,07,15,11,24,20.40
2017,07,15,11,25,20.40
2017,07,15,11,26,20.50
2017,07,15,11,27,20.50
2017,07,15,11,28,20.50
2017,07,15,11,29,20.50
2017,07,15,11,30,20.40
2017,07,15,11,31,20.30
2017,07,15,11,32,20.30
2017,07,15,11,33,20.40
2017,07,15,11,34,20.40
2017,07,15,11,35,20.50
2017,07,15,11,36,20.50
2017,07,15,11,37,20.60
2017,07,15,11,38,20.60
2017,07,15,11,39,20.50
2017,07,15,11,40,20.40
2017,07,15,11,41,20.30
2017,07,15,11,42,20.10
2017,07,15,11,43,20.00
2017,07,15,11,44,19.90
2017,07,15,11,45,19.80
2017,07,15,11,46,20.00
2017,07,15,11,47,20.00
2017,07,15,11,48,20.00
2017,07,15,11,49,20.10
2017,07,15,11,50,20.10
2017,07,15,11,51,20.00
2017,07,15,11,52,19.90
2017,07,15,11,53,19.80
2017,07,15,11,54,19.80
2017,07,15,11,55,19.90
2017,07,15,11,56,19.90
2017,07,15,11,57,20.00
2017,07,15,11,58,20.00
2017,07,15,11,59,20.10
2017,07,15,12,00,20.20
2017,07,15,12,01,20.20
2017,07,15,12,02,20.30
2017,07,15,12,03,20.50
2017,07,15,12,04,20.70
2017,07,15,12,05,20.90
2017,07,15,12,06,20.90
2017,07,15,12,07,21.00
2017,07,15,12,08,21.10
2017,07,15,12,09,21.10
2017,07,15,12,10,21.10
2017,07,15,12,11,21.00
2017,07,15,12,12,21.00
2017,07,15,12,13,21.10
2017,07,15,12,14,21.20
2017,07,15,12,15,21.20
2017,07,15,12,16,21.30
2017,07,15,12,17,21.10
2017,07,15,12,18,21.00
2017,07,15,12,19,21.00
2017,07,15,12,20,21.00
2017,07,15,12,21,20.90
2017,07,15,12,22,20.90
2017,07,15,12,23,20.90
2017,07,15,12,24,20.90
2017,07,15,12,25,21.00
2017,07,15,12,26,21.10
2017,07,15,12,27,21.20
2017,07,15,12,28,21.30
2017,07,15,12,29,21.30
2017,07,15,12,30,21.30
2017,07,15,12,31,21.40
2017,07,15,12,32,21.40
2017,07,15,12,33,21.50
2017,07,15,12,34,21.50
2017,07,15,12,35,21.50
2017,07,15,12,36,21.50
2017,07,15,12,37,21.50
2017,07,15,12,38,21.50
2017,07,15,12,39,21.70
2017,07,15,12,40,21.70
2017,07,15,12,41,21.70
2017,07,15,12,42,21.70
2017,07,15,12,43,21.70
2017,07,15,12,44,21.60
2017,07,15,12,45,21.60
2017,07,15,12,46,21.60
2017,07,15,12,47,21.70
2017,07,15,12,48,21.80
2017,07,15,12,49,21.90
2017,07,15,12,50,22.10
2017,07,15,12,51,22.20
2017,07,15,12,52,22.10
2017,07,15,12,53,22.00
2017,07,15,12,54,21.90
2017,07,15,12,55,21.70
2017,07,15,12,56,21.40
2017,07,15,12,57,21.10
2017,07,15,12,58,21.00
2017,07,15,12,59,20.90
2017,07,15,13,00,20.90
2017,07,15,13,01,20.90
2017,07,15,13,02,21.00
2017,07,15,13,03,21.00
2017,07,15,13,04,21.00
2017,07,15,13,05,20.90
2017,07,15,13,06,20.70
2017,07,15,13,07,20.50
2017,07,15,13,08,20.30
2017,07,15,13,09,20.20
2017,07,15,13,10,20.10
2017,07,15,13,11,19.90
2017,07,15,13,12,19.90
2017,07,15,13,13,19.90
2017,07,15,13,14,20.00
2017,07,15,13,15,20.10
2017,07,15,13,16,20.10
2017,07,15,13,17,20.20
2017,07,15,13,18,20.20
2017,07,15,13,19,20.30
2017,07,15,13,20,20.30
2017,07,15,13,21,20.40
2017,07,15,13,22,20.40
2017,07,15,13,23,20.50
2017,07,15,13,24,20.60
2017,07,15,13,25,20.70
2017,07,15,13,26,20.80
2017,07,15,13,27,20.90
2017,07,15,13,28,21.10
2017,07,15,13,29,21.30
2017,07,15,13,30,21.40
2017,07,15,13,31,21.60
2017,07,15,13,32,21.70
2017,07,15,13,33,21.80
2017,07,15,13,34,21.90
2017,07,15,13,35,22.00
2017,07,15,13,36,22.10
2017,07,15,13,37,22.20
2017,07,15,13,38,22.20
2017,07,15,13,39,22.10
2017,07,15,13,40,22.10
2017,07,15,13,41,22.10
2017,07,15,13,42,22.10
2017,07,15,13,43,22.00
2017,07,15,13,44,21.90
2017,07,15,13,45,22.10
2017,07,15,13,46,22.20
2017,07,15,13,47,22.20
2017,07,15,13,48,22.30
2017,07,15,13,49,22.30
2017,07,15,13,50,22.20
2017,07,15,13,51,22.20
2017,07,15,13,52,22.10
2017,07,15,13,53,22.00
2017,07,15,13,54,21.80
2017,07,15,13,55,21.80
2017,07,15,13,56,21.90
2017,07,15,13,57,22.00
2017,07,15,13,58,22.20
2017,07,15,13,59,22.30
2017,07,15,14,00,22.50
2017,07,15,14,01,22.60
2017,07,15,14,02,22.50
2017,07,15,14,03,22.40
2017,07,15,14,04,22.30
2017,07,15,14,05,22.00
2017,07,15,14,06,21.90
2017,07,15,14,07,21.90
2017,07,15,14,08,21.90
2017,07,15,14,09,22.00
2017,07,15,14,10,22.10
2017,07,15,14,11,22.40
2017,07,15,14,12,22.60
2017,07,15,14,13,22.60
2017,07,15,14,14,22.70
2017,07,15,14,15,22.70
2017,07,15,14,16,22.80
2017,07,15,14,17,22.90
2017,07,15,14,18,22.90
2017,07,15,14,19,22.80
2017,07,15,14,20,22.80
2017,07,15,14,21,22.70
2017,07,15,14,22,22.50
2017,07,15,14,23,22.40
2017,07,15,14,24,22.40
2017,07,15,14,25,22.50
2017,07,15,14,26,22.50
2017,07,15,14,27,22.40
2017,07,15,14,28,22.50
2017,07,15,14,29,22.60
2017,07,15,14,30,22.60
2017,07,15,14,31,22.50
2017,07,15,14,32,22.50
2017,07,15,14,33,22.40
2017,07,15,14,34,22.40
2017,07,15,14,35,22.30
2017,07,15,14,36,22.20
2017,07,15,14,37,22.20
2017,07,15,14,38,22.00
2017,07,15,14,39,21.90
2017,07,15,14,40,21.70
2017,07,15,14,41,21.60
2017,07,15,14,42,21.60
2017,07,15,14,43,21.60
2017,07,15,14,44,21.70
2017,07,15,14,45,21.80
2017,07,15,14,46,21.80
2017,07,15,14,47,21.80
2017,07,15,14,48,21.70
2017,07,15,14,49,21.60
2017,07,15,14,50,21.70
2017,07,15,14,51,21.80
2017,07,15,14,52,21.80
2017,07,15,14,53,21.70
2017,07,15,14,54,21.70
2017,07,15,14,55,21.70
2017,07,15,14,56,21.60
2017,07,15,14,57,21.60
2017,07,15,14,58,21.60
2017,07,15,14,59,21.70
2017,07,15,15,00,21.70
2017,07,15,15,01,21.70
2017,07,15,15,02,21.80
2017,07,15,15,03,21.80
2017,07,15,15,04,21.70
2017,07,15,15,05,21.70
2017,07,15,15,06,21.60
2017,07,15,15,07,21.50
2017,07,15,15,08,21.40
2017,07,15,15,09,21.30
2017,07,15,15,10,21.30
2017,07,15,15,11,21.30
2017,07,15,15,12,21.20
2017,07,15,15,13,21.20
2017,07,15,15,14,21.20
2017,07,15,15,15,21.20
2017,07,15,15,16,21.30
2017,07,15,15,17,21.40
2017,07,15,15,18,21.50
2017,07,15,15,19,21.60
2017,07,15,15,20,21.60
2017,07,15,15,21,21.60
2017,07,15,15,22,21.60
2017,07,15,15,23,21.60
2017,07,15,15,24,21.60
2017,07,15,15,25,21.70
2017,07,15,15,26,21.80
2017,07,15,15,27,21.90
2017,07,15,15,28,21.90
2017,07,15,15,29,21.80
2017,07,15,15,30,21.60
2017,07,15,15,31,21.30
2017,07,15,15,32,21.20
2017,07,15,15,33,21.20
2017,07,15,15,34,21.20
2017,07,15,15,35,21.30
2017,07,15,15,36,21.30
2017,07,15,15,37,21.30
2017,07,15,15,38,21.50
2017,07,15,15,39,21.50
2017,07,15,15,40,21.30
2017,07,15,15,41,21.30
2017,07,15,15,42,21.20
2017,07,15,15,43,21.20
2017,07,15,15,44,21.20
2017,07,15,15,45,21.20
2017,07,15,15,46,21.20
2017,07,15,15,47,21.30
2017,07,15,15,48,21.30
2017,07,15,15,49,21.30
2017,07,15,15,50,21.40
2017,07,15,15,51,21.50
2017,07,15,15,52,21.70
2017,07,15,15,53,21.70
2017,07,15,15,54,21.70
2017,07,15,15,55,21.80
2017,07,15,15,56,21.80
2017,07,15,15,57,21.80
2017,07,15,15,58,21.80
2017,07,15,15,59,21.80
2017,07,15,16,00,21.70
2017,07,15,16,01,21.70
2017,07,15,16,02,21.60
2017,07,15,16,03,21.60
2017,07,15,16,04,21.60
2017,07,15,16,05,21.70
2017,07,15,16,06,21.80
2017,07,15,16,07,21.80
2017,07,15,16,08,21.80
2017,07,15,16,09,21.90
2017,07,15,16,10,21.90
2017,07,15,16,11,22.00
2017,07,15,16,12,22.10
2017,07,15,16,13,22.30
2017,07,15,16,14,22.30
2017,07,15,16,15,22.20
2017,07,15,16,16,22.20
2017,07,15,16,17,22.10
2017,07,15,16,18,21.90
2017,07,15,16,19,21.90
2017,07,15,16,20,21.90
2017,07,15,16,21,21.80
2017,07,15,16,22,21.80
2017,07,15,16,23,21.80
2017,07,15,16,24,21.70
2017,07,15,16,25,21.70
2017,07,15,16,26,21.80
2017,07,15,16,27,21.80
2017,07,15,16,28,21.80
2017,07,15,16,29,21.70
2017,07,15,16,30,21.70
2017,07,15,16,31,21.70
2017,07,15,16,32,21.60
2017,07,15,16,33,21.70
2017,07,15,16,34,21.80
2017,07,15,16,35,21.80
2017,07,15,16,36,21.80
2017,07,15,16,37,21.70
2017,07,15,16,38,21.60
2017,07,15,16,39,21.60
2017,07,15,16,40,21.50
2017,07,15,16,41,21.40
2017,07,15,16,42,21.30
2017,07,15,16,43,21.40
2017,07,15,16,44,21.40
2017,07,15,16,45,21.40
2017,07,15,16,46,21.40
2017,07,15,16,47,21.50
2017,07,15,16,48,21.60
2017,07,15,16,49,21.70
2017,07,15,16,50,21.80
2017,07,15,16,51,21.80
2017,07,15,16,52,21.90
2017,07,15,16,53,22.10
2017,07,15,16,54,22.10
2017,07,15,16,55,22.10
2017,07,15,16,56,22.10
2017,07,15,16,57,22.00
2017,07,15,16,58,21.90
2017,07,15,16,59,21.80
2017,07,15,17,00,21.70
2017,07,15,17,01,21.70
2017,07,15,17,02,21.70
2017,07,15,17,03,21.70
2017,07,15,17,04,21.80
2017,07,15,17,05,21.90
2017,07,15,17,06,22.00
2017,07,15,17,07,22.00
2017,07,15,17,08,21.90
2017,07,15,17,09,21.90
2017,07,15,17,10,21.90
2017,07,15,17,11,21.80
2017,07,15,17,12,21.60
2017,07,15,17,13,21.40
2017,07,15,17,14,21.30
2017,07,15,17,15,21.20
2017,07,15,17,16,21.10
2017,07,15,17,17,21.00
2017,07,15,17,18,20.90
2017,07,15,17,19,20.80